sat.trackr.live / text

‹ back to catalog

STARLINK-2330

NORAD 47874 · 2021-021Q

PAYLOAD ACTIVE UNKNOWN

§ Identity

Operator
Country
US
Launch date
2021-03-14
Launch site
AFETR
Launch vehicle
Mass (kg)
RCS (m²)

Purposes: comms

External: N2YO · Heavens-Above · Gunter

§ Orbital elements

Epoch: 2026-05-25T05:11:57.112800Z

Period
93.79 min
Inclination
53.1438°
Eccentricity
0.0004077
Mean motion
15.35334352 rev/d
Perigee alt
457.1 km
Apogee alt
462.7 km
Semi-major
6,838.1 km
B*
1.3016e-3
RAAN
220.0646°
Arg perigee
343.7195°
Mean anomaly
16.3677°
Rev number
28,869

§ Raw data

STARLINK-23301 47874U 21021Q   26145.21663325  .00045207  00000+0  13016-2 0  99922 47874  53.1438 220.0646 0004077 343.7195  16.3677 15.35334352288693

JSON: /api/v1/satellites/47874 · /tle

For live sub-satellite position, see the globe view (requires WebGL).

§ Visibility from observer

Set your observer location to see the next 7 days of passes ≥ 10°. The values pass through the URL so the page stays shareable.

No JS? Fill the form by hand. The geolocation button needs JavaScript.